Litchfield, MN

4:55 AM CST on December 03, 2016 (GMT -0600)
Litchfield Municipal

Weather History for KLJF - September, 2012

Change the Weather History Date:

Sunday, September 16, 2012

  Actual Average Record
Temperature  
Mean Temperature 68 °F -  
Max Temperature 80 °F 71 °F 92 °F (1948)
Min Temperature 57 °F 47 °F 27 °F (1984)
Cooling Degree Days 4    
Growing Degree Days 18 (Base 50)    
Moisture  
Dew Point 46 °F    
Average Humidity 48    
Maximum Humidity 88    
Minimum Humidity 24    
Precipitation  
Precipitation 0.00 in - - ()
Sea Level Pressure  
Sea Level Pressure 29.93 in    
Wind  
Wind Speed 6 mph (NW)    
Max Wind Speed 17 mph    
Max Gust Speed 22 mph    
Visibility 10 miles    
Events Thunderstorm    
Averages and records for this station are not official NWS values.
T = Trace of Precipitation, MM = Missing Value Source: NWS Daily Summary

Daily Weather History Graph

Daily Weather History Graph

Search for Another Location

Airport or City:

Trip Planner

Search our weather history database for the weather conditions in past years. The results will help you decide how hot, cold, wet, or windy it might be!

Date:

Astronomy

Sep. 16, 2012 Rise Set
Actual Time 6:58 AM CDT 7:26 PM CDT
Civil Twilight 6:28 AM CDT 7:55 PM CDT
Nautical Twilight 5:54 AM CDT 8:30 PM CDT
Astronomical Twilight 5:17 AM CDT 9:06 PM CDT
Moon 7:43 AM CDT (9/16) 7:25 PM CDT (9/16)
Length of Visible Light 13h 26m
Length of Day
12h 27m
New Moon, 0% of the Moon is Illuminated
Sep 16
New Moon
Sep 22
First Quarter
Sep 29
Full
Oct 8
Last Quarter
Oct 15
New

Hourly Weather History & Observations

Time (CDT) Temp. Dew Point Humidity Pressure Visibility Wind Dir Wind Speed Gust Speed Precip Events Conditions
12:13 AM 64.4 °F 39.2 °F 40% 29.94 in 10.0 mi SSW 6.9 mph - N/A   Clear
12:34 AM 64.4 °F 39.2 °F 40% 29.94 in 10.0 mi SSW 6.9 mph - N/A   Scattered Clouds
12:53 AM 62.6 °F 41.0 °F 45% 29.94 in 10.0 mi SSW 5.8 mph - N/A   Clear
1:13 AM 62.6 °F 41.0 °F 45% 29.93 in 10.0 mi SSW 5.8 mph - N/A   Clear
1:34 AM 62.6 °F 41.0 °F 45% 29.93 in 10.0 mi SSW 6.9 mph - N/A   Clear
1:53 AM 60.8 °F 41.0 °F 48% 29.93 in 10.0 mi SSW 5.8 mph - N/A   Clear
2:13 AM 60.8 °F 42.8 °F 52% 29.94 in 10.0 mi SSW 5.8 mph - N/A   Clear
2:34 AM 60.8 °F 42.8 °F 52% 29.93 in 10.0 mi SSW 5.8 mph - N/A   Clear
2:53 AM 60.8 °F 42.8 °F 52% 29.93 in 10.0 mi South 4.6 mph - N/A   Clear
3:12 AM 59.0 °F 42.8 °F 55% 29.93 in 10.0 mi SSW 5.8 mph - N/A   Clear
3:33 AM 59.0 °F 44.6 °F 59% 29.92 in 10.0 mi SW 3.5 mph - N/A   Clear
3:54 AM 59.0 °F 46.4 °F 63% 29.92 in 10.0 mi SSW 6.9 mph - N/A   Clear
4:13 AM 59.0 °F 46.4 °F 63% 29.91 in 10.0 mi South 3.5 mph - N/A   Scattered Clouds
4:33 AM 59.0 °F 48.2 °F 67% 29.91 in 10.0 mi South 3.5 mph - N/A   Scattered Clouds
4:54 AM 57.2 °F 46.4 °F 67% 29.90 in 10.0 mi SSW 3.5 mph - N/A   Clear
5:13 AM 57.2 °F 48.2 °F 72% 29.90 in 10.0 mi SSW 3.5 mph - N/A   Clear
5:33 AM 59.0 °F 50.0 °F 72% 29.90 in 10.0 mi SSW 5.8 mph - N/A   Scattered Clouds
5:54 AM 60.8 °F 51.8 °F 72% 29.90 in 10.0 mi SSW 3.5 mph - N/A   Clear
6:13 AM 60.8 °F 51.8 °F 72% 29.90 in 10.0 mi SSW 4.6 mph - N/A   Clear
6:33 AM 60.8 °F 53.6 °F 77% 29.90 in 10.0 mi SSW 5.8 mph - N/A   Clear
6:54 AM 59.0 °F 53.6 °F 82% 29.90 in 10.0 mi SW 4.6 mph - N/A   Clear
7:13 AM 57.2 °F 53.6 °F 88% 29.90 in 10.0 mi SW 3.5 mph - N/A   Clear
7:33 AM 57.2 °F 53.6 °F 88% 29.90 in 10.0 mi SSW 4.6 mph - N/A   Clear
7:53 AM 59.0 °F 53.6 °F 82% 29.91 in 10.0 mi SW 4.6 mph - N/A   Clear
8:13 AM 60.8 °F 55.4 °F 82% 29.90 in 10.0 mi SW 5.8 mph - N/A   Clear
8:34 AM 62.6 °F 55.4 °F 77% 29.91 in 10.0 mi WSW 4.6 mph - N/A   Clear
8:53 AM 64.4 °F 53.6 °F 68% 29.91 in 10.0 mi SW 4.6 mph - N/A   Clear
9:13 AM 64.4 °F 51.8 °F 64% 29.91 in 10.0 mi WSW 4.6 mph - N/A   Clear
9:34 AM 64.4 °F 51.8 °F 64% 29.92 in 10.0 mi West 8.1 mph - N/A   Clear
9:53 AM 66.2 °F 48.2 °F 52% 29.93 in 10.0 mi West 6.9 mph - N/A   Clear
10:13 AM 68.0 °F 46.4 °F 46% 29.92 in 10.0 mi West 6.9 mph - N/A   Clear
10:34 AM 69.8 °F 44.6 °F 40% 29.92 in 10.0 mi West 6.9 mph - N/A   Clear
10:53 AM 69.8 °F 44.6 °F 40% 29.93 in 10.0 mi West 4.6 mph - N/A   Clear
11:13 AM 71.6 °F 44.6 °F 38% 29.92 in 10.0 mi NNW 4.6 mph - N/A   Clear
11:33 AM 71.6 °F 44.6 °F 38% 29.93 in 10.0 mi NNW 3.5 mph - N/A   Clear
11:53 AM 73.4 °F 44.6 °F 36% 29.92 in 10.0 mi NW 4.6 mph - N/A   Clear
12:14 PM 75.2 °F 44.6 °F 34% 29.92 in 10.0 mi North 3.5 mph - N/A   Clear
12:33 PM 75.2 °F 46.4 °F 36% 29.92 in 10.0 mi North 5.8 mph - N/A   Clear
12:53 PM 75.2 °F 46.4 °F 36% 29.91 in 10.0 mi NNE 5.8 mph - N/A   Clear
1:14 PM 77.0 °F 48.2 °F 36% 29.91 in 10.0 mi ENE 4.6 mph - N/A   Clear
1:33 PM 78.8 °F 46.4 °F 32% 29.91 in 10.0 mi NNE 5.8 mph - N/A   Clear
1:53 PM 78.8 °F 46.4 °F 32% 29.91 in 10.0 mi North 4.6 mph - N/A   Clear
2:13 PM 80.6 °F 46.4 °F 30% 29.91 in 10.0 mi North 5.8 mph - N/A   Clear
2:33 PM 80.6 °F 46.4 °F 30% 29.91 in 10.0 mi NNE 3.5 mph - N/A   Clear
2:53 PM 80.6 °F 46.4 °F 30% 29.90 in 10.0 mi North 6.9 mph - N/A   Clear
3:13 PM 80.6 °F 44.6 °F 28% 29.90 in 10.0 mi North 5.8 mph - N/A   Clear
3:33 PM 80.6 °F 44.6 °F 28% 29.90 in 10.0 mi NNE 6.9 mph - N/A   Clear
3:53 PM 80.6 °F 44.6 °F 28% 29.90 in 10.0 mi NE 3.5 mph - N/A   Clear
4:13 PM 80.6 °F 44.6 °F 28% 29.90 in 10.0 mi NNW 5.8 mph - N/A   Clear
4:33 PM 80.6 °F 44.6 °F 28% 29.90 in 10.0 mi North 4.6 mph - N/A   Clear
4:53 PM 80.6 °F 41.0 °F 24% 29.90 in 10.0 mi North 6.9 mph - N/A   Clear
5:14 PM 80.6 °F 42.8 °F 26% 29.90 in 10.0 mi North 5.8 mph - N/A   Clear
5:33 PM 78.8 °F 44.6 °F 30% 29.91 in 10.0 mi NNW 13.8 mph - N/A   Clear
5:53 PM 77.0 °F 44.6 °F 32% 29.91 in 10.0 mi North 11.5 mph - N/A   Clear
6:13 PM 77.0 °F 46.4 °F 34% 29.91 in 10.0 mi North 11.5 mph - N/A   Clear
6:33 PM 73.4 °F 46.4 °F 38% 29.91 in 10.0 mi North 12.7 mph 17.3 mph N/A   Clear
6:53 PM 71.6 °F 44.6 °F 38% 29.92 in 10.0 mi North 10.4 mph 16.1 mph N/A   Clear
7:13 PM 71.6 °F 42.8 °F 35% 29.92 in 10.0 mi North 8.1 mph - N/A   Clear
7:33 PM 69.8 °F 42.8 °F 38% 29.93 in 10.0 mi North 6.9 mph - N/A   Clear
7:53 PM 68.0 °F 42.8 °F 40% 29.94 in 10.0 mi North 6.9 mph - N/A   Scattered Clouds
8:13 PM 66.2 °F 41.0 °F 40% 29.95 in 10.0 mi North 11.5 mph 16.1 mph N/A   Scattered Clouds
8:33 PM 66.2 °F 39.2 °F 37% 29.96 in 10.0 mi NNW 12.7 mph - N/A   Scattered Clouds
8:53 PM 64.4 °F 39.2 °F 40% 29.96 in 10.0 mi NNW 17.3 mph 21.9 mph N/A   Clear
9:13 PM 64.4 °F 39.2 °F 40% 29.98 in 10.0 mi North 13.8 mph 18.4 mph N/A   Scattered Clouds
9:33 PM 62.6 °F 39.2 °F 42% 29.99 in 10.0 mi NNW 12.7 mph - N/A   Scattered Clouds
9:53 PM 62.6 °F 41.0 °F 45% 29.99 in 10.0 mi North 11.5 mph 17.3 mph N/A   Scattered Clouds
10:13 PM 60.8 °F 42.8 °F 52% 29.98 in 10.0 mi North 9.2 mph - N/A   Clear
10:33 PM 60.8 °F 42.8 °F 52% 29.99 in 10.0 mi North 5.8 mph - N/A   Clear
10:53 PM 59.0 °F 42.8 °F 55% 30.00 in 10.0 mi North 10.4 mph - N/A   Clear
11:13 PM 59.0 °F 42.8 °F 55% 30.00 in 10.0 mi NNW 10.4 mph - N/A Thunderstorm Clear
11:33 PM 57.2 °F 42.8 °F 59% 29.99 in 10.0 mi North 12.7 mph 17.3 mph N/A   Scattered Clouds
11:53 PM 57.2 °F 42.8 °F 59% 29.99 in 10.0 mi North 11.5 mph 18.4 mph N/A   Mostly Cloudy